User: anonymous   Login
Location: Unspecified
(0.0000°N, 0.0000°E)
Time: 16:44:35
(UTC+00:00)
Language:

DUCHIFAT 1 - Orbit

View from above orbital plane
View from above orbital plane
View from above satellite
View from above satellite

Ground track
Ground track

The orbit data is extracted from the following two-line orbital elements,

1 40021U 14033M   21268.63571214  .00001114  00000-0  11702-3 0  9997
2 40021  97.9781 209.9268 0012249 187.6187 172.4847 14.91487001395210
Epoch (UTC): 25 September 2021 15:15:25
Eccentricity: 0.0012249
inclination: 97.9781°
perigee height: 585 km
apogee height: 602 km
right ascension of ascending node: 209.9268°
argument of perigee: 187.6187°
revolutions per day: 14.91487001
mean anomaly at epoch: 172.4847°
orbit number at epoch: 39521

The dashed part of the orbit path shows where the satellite is in the earth's shadow,  

DLR